Back to catalog

STARLINK-36224

AliveCommunicationsVLEO
NORAD 67203·PAYLOAD·🇺🇸 United States

Launched Dec 17, 2025 from Vandenberg Space Force Base

Loading…

Next Passes (next 24 hours)

TLE

FreshSource: CelesTrak SupGP

Epoch: Sep 15, 2026, 03:47 UTC

1 67203C 25304M   26258.15812500 -.00023293  00000+0 -19528-2 0  2582
2 67203  70.0015  56.7614 0002584 268.8430 122.4379 14.98329414    16

Track STARLINK-36224 in real time with AllMySat

Download on the App Store